Wind_Speed
76 74 71 73 75 75 71 73 73 73 72 72 72 72 72 71 66 64 63 65 62 59 59 56 56 52 48 49 43 44 39 40 36 32 27 24 23 24 22 22 23 22 23 23 26 25 27
84 81 78 77 76 75 72 72 70 72 72 73 71 72 73 74 71 69 71 66 66 63 62 59 57 56 55 51 47 49 42 41 42 36 32 26 25 26 27 24 25 26 24 23 25 24 25
89 89 88 83 82 80 78 77 75 71 71 72 70 71 72 72 74 73 71 70 69 66 64 61 59 58 60 51 49 50 44 44 45 42 34 38 27 28 28 28 26 26 26 26 25 24 24
96 94 93 92 89 86 83 81 79 77 73 71 71 69 70 71 72 72 73 71 69 68 63 62 62 63 65 56 53 50 46 45 46 45 38 38 37 31 28 33 28 29 30 28 25 27 27
107 103 100 98 98 94 91 87 83 80 78 73 70 69 71 69 69 71 71 73 72 70 68 67 67 67 67 62 54 48 48 45 46 50 45 41 44 33 31 31 33 32 30 30 29 29 31
107 106 105 103 102 99 96 93 89 85 81 78 72 68 69 63 66 67 73 76 74 73 72 73 72 69 64 58 54 50 51 48 49 53 49 46 44 38 33 28 31 30 33 33 35 33 33
108 106 104 103 101 99 100 96 94 92 85 81 79 75 66 67 66 69 68 73 73 72 73 72 68 61 62 58 53 52 51 48 51 54 50 47 45 43 25 28 31 36 40 38 37 36 36
111 110 109 108 105 103 99 98 95 93 90 87 82 80 75 68 69 67 68 73 68 72 71 69 73 67 62 63 59 56 55 56 57 51 49 54 47 38 31 38 37 36 43 42 42 41 43
108 110 112 111 110 108 107 102 99 95 93 91 87 84 80 75 70 77 68 64 63 73 69 73 73 71 66 66 60 56 61 60 60 57 55 49 43 38 43 43 39 35 43 45 44 44 47
69 88 109 112 112 113 110 108 106 102 97 94 91 87 85 83 82 80 76 57 58 60 65 69 69 62 64 61 59 62 58 62 59 53 51 48 44 48 43 45 40 40 39 45 49 46 50
29 33 55 78 106 117 115 113 109 107 103 100 96 91 89 88 85 82 75 77 73 67 71 69 62 72 67 65 62 61 63 58 54 56 54 43 49 45 49 44 43 41 42 48 55 51 54
31 37 41 40 56 92 108 117 115 110 108 104 102 98 96 93 88 82 84 81 81 79 73 73 68 66 60 64 61 64 62 62 59 60 56 51 53 47 53 49 46 48 46 50 51 54 60
30 32 36 43 46 46 57 92 111 114 111 109 106 105 103 99 88 87 86 89 94 96 88 67 61 60 63 69 56 59 66 62 59 55 56 53 54 55 50 51 51 53 46 47 48 54 60
39 37 35 36 42 49 48 47 64 98 107 107 108 109 109 102 97 93 91 92 100 99 95 85 74 69 64 65 55 50 63 62 50 51 52 53 51 47 43 44 51 48 48 47 48 46 47
42 43 40 39 43 43 50 52 51 50 75 99 105 110 112 108 103 101 100 98 99 103 94 88 87 72 67 68 53 47 50 55 47 42 43 47 42 39 44 42 45 46 44 38 43 48 50
47 48 45 44 44 47 52 54 57 53 50 61 90 111 114 110 110 109 110 110 90 96 90 92 92 79 66 63 63 54 51 51 51 50 43 40 44 43 43 42 37 45 47 44 49 50 49
50 48 50 52 53 54 55 59 58 60 56 52 61 95 107 112 117 118 116 114 101 81 89 93 89 84 64 56 51 60 57 46 46 47 44 42 48 48 43 41 40 45 47 44 43 43 45
51 46 50 57 64 60 56 58 63 59 59 58 55 75 97 111 121 126 122 115 105 87 87 93 88 85 82 65 58 55 56 45 47 49 45 42 45 48 41 37 36 43 43 42 46 46 42
49 47 55 62 63 55 51 57 59 63 60 61 57 47 80 88 109 124 122 114 110 102 89 91 94 86 79 76 62 66 46 37 40 43 44 44 46 46 45 46 43 46 47 48 50 49 49
50 51 57 57 43 48 54 60 63 65 59 61 57 54 68 65 77 103 122 119 113 103 88 92 89 89 84 83 62 62 53 46 33 30 27 33 37 39 44 41 44 48 50 52 54 51 49
48 50 58 40 34 31 25 49 59 60 63 63 62 58 51 80 72 78 109 117 114 108 98 84 92 90 91 77 71 66 53 50 46 46 42 40 32 36 48 50 51 48 46 48 52 46 51
46 45 53 33 19 15 9 32 49 53 57 60 57 53 47 47 78 82 96 115 114 109 100 66 75 87 84 85 88 92 87 77 70 65 65 54 51 42 42 40 34 41 38 36 36 43 46
40 40 46 30 18 6 9 19 33 45 51 52 51 47 44 38 57 75 93 107 112 110 102 90 71 73 92 88 81 87 86 80 71 53 55 58 49 36 40 42 40 40 36 38 37 37 39
34 34 33 39 14 6 11 16 26 34 40 41 39 42 40 38 39 60 65 93 107 110 103 101 69 71 75 78 80 83 88 80 73 65 54 46 51 44 39 43 44 36 37 35 39 40 41
30 26 29 35 28 1 13 18 24 29 32 36 40 44 39 32 25 40 64 66 98 104 102 103 80 64 68 66 78 85 82 78 62 52 59 57 46 41 44 41 41 41 39 39 42 42 43
27 23 23 27 29 23 3 10 11 19 27 30 29 32 35 29 32 35 45 57 68 103 104 110 93 60 68 77 74 77 76 80 82 62 53 57 55 56 47 43 42 38 50 46 48 47 48
28 23 24 21 20 20 16 6 14 20 24 26 30 30 27 35 38 27 32 53 48 81 99 105 110 73 71 75 73 73 69 71 77 69 62 55 58 53 55 50 50 52 52 58 56 54 52
25 27 25 20 12 13 10 8 8 15 14 19 27 32 33 35 42 44 37 44 44 64 90 81 101 87 89 73 59 73 75 67 67 76 60 56 52 54 57 56 55 55 60 59 59 60 62
20 20 24 23 11 8 8 9 3 11 13 20 26 28 33 42 43 22 30 56 39 69 80 61 99 119 81 73 62 64 67 65 63 71 75 65 62 61 58 56 55 53 51 55 55 54 55
Wind_Direction
255 254 252 252 251 250 249 249 251 251 251 251 251 249 248 248 249 248 250 254 258 260 256 255 256 258 261 264 265 270 274 279 280 285 282 282 279 268 263 249 248 246 239 236 240 244 249
251 252 252 251 250 250 248 247 247 247 248 249 252 251 251 249 250 250 250 250 258 257 253 254 253 255 256 259 262 266 268 272 275 282 281 279 282 272 261 256 247 246 244 237 241 242 247
251 250 251 250 249 248 249 249 247 244 246 246 248 251 249 250 249 248 250 252 253 253 252 252 255 252 256 258 260 260 263 265 268 277 276 279 277 279 263 258 251 246 243 238 239 240 242
250 250 252 251 249 248 247 246 246 248 244 242 244 245 247 247 249 249 250 251 250 251 252 250 253 253 255 255 258 257 258 260 266 270 278 276 277 273 269 259 253 244 240 241 236 236 238
252 252 250 249 250 248 249 246 246 246 246 243 240 241 245 246 248 250 249 249 248 248 249 249 250 252 257 254 252 254 253 257 259 268 272 273 274 268 262 261 254 249 243 242 238 234 236
251 252 251 250 249 249 247 248 245 244 244 245 240 240 238 244 249 250 250 249 248 247 247 248 250 252 260 258 251 254 254 253 255 265 270 277 271 262 251 265 260 257 250 242 240 240 232
253 252 252 250 250 247 247 247 246 245 242 241 241 239 238 238 239 244 244 248 248 249 251 252 256 259 262 258 258 247 251 252 253 260 269 277 263 255 257 261 257 245 242 242 240 236 233
255 254 253 252 250 249 248 246 244 244 243 242 238 239 236 237 237 238 231 235 243 249 250 252 254 255 255 259 259 257 247 248 254 262 262 268 257 261 259 257 255 251 247 246 246 245 242
256 256 253 252 250 250 248 246 246 242 242 242 240 237 236 231 234 240 240 243 240 241 247 250 250 250 249 253 252 256 248 248 251 254 259 267 257 255 256 254 253 254 253 245 250 249 246
262 259 254 255 252 250 247 245 243 242 242 240 240 238 235 233 232 235 238 244 245 246 249 248 244 242 248 246 249 248 246 246 249 253 258 263 255 254 249 256 255 256 257 248 246 246 250
283 270 257 254 257 252 249 247 245 242 238 238 237 236 235 234 232 231 231 241 248 251 248 249 242 245 244 245 251 251 252 250 252 255 255 258 256 252 260 257 259 258 255 250 242 243 244
292 283 276 269 261 252 254 250 247 243 240 234 233 233 232 232 232 231 230 235 239 246 241 249 243 245 250 244 243 250 246 246 247 248 248 248 252 248 255 251 252 253 252 255 249 243 245
300 292 283 269 265 260 258 250 252 245 241 236 232 229 230 228 229 229 230 232 237 243 247 240 240 248 244 249 244 244 245 243 242 244 248 246 245 251 247 251 250 250 246 252 253 246 249
303 295 287 279 266 258 258 258 252 247 245 237 233 230 228 227 223 224 225 229 234 240 240 239 244 244 245 249 246 248 237 239 237 239 239 243 244 246 249 250 254 255 248 242 251 254 253
305 303 297 283 273 265 256 251 253 252 244 236 231 229 226 225 222 222 222 221 229 235 236 239 240 241 246 244 246 244 236 238 233 233 235 234 237 243 246 240 241 247 244 244 247 252 253
312 310 294 292 284 269 258 248 245 245 249 242 230 225 224 222 222 221 222 218 225 232 231 240 240 240 242 241 242 242 237 238 233 234 230 225 235 235 239 243 231 236 244 241 245 251 250
312 306 298 294 290 278 258 246 239 238 238 239 237 221 218 218 220 222 221 221 216 226 227 234 238 237 235 238 242 242 240 233 225 224 221 222 229 237 234 238 233 233 241 241 245 246 251
316 303 295 295 289 278 260 247 236 232 230 233 238 225 213 213 216 221 222 221 218 217 224 229 233 237 237 242 242 243 239 229 223 214 213 216 223 235 238 242 233 237 237 238 239 245 249
320 310 309 300 289 279 257 239 235 225 223 227 234 242 215 213 214 217 220 221 220 213 218 226 229 231 234 236 232 239 225 225 221 226 219 216 220 227 230 236 236 234 241 247 248 248 255
321 312 312 312 293 281 260 235 224 221 216 221 224 227 215 213 215 215 216 219 219 217 216 224 230 229 231 230 229 227 227 225 215 206 218 216 229 236 243 250 248 242 242 246 252 253 252
324 319 330 318 303 304 255 211 212 212 213 215 219 228 235 222 210 212 215 214 217 216 213 224 227 229 227 225 232 236 233 230 240 254 258 242 238 240 237 240 246 249 246 248 250 256 259
327 326 341 328 310 339 188 195 199 201 206 214 221 225 232 235 218 213 213 212 213 215 209 212 212 226 227 226 234 240 244 246 256 264 262 255 263 256 244 236 253 254 248 251 246 249 253
329 328 350 346 358 130 155 185 200 197 206 213 216 225 234 239 221 219 215 212 211 212 211 212 222 225 230 231 237 239 240 243 249 250 256 255 252 253 240 246 254 255 249 257 252 253 258
334 332 349 12 1 66 126 159 184 195 210 220 224 228 235 234 223 220 217 217 207 208 210 207 212 215 231 229 233 236 236 237 239 240 241 243 252 240 257 260 258 258 254 259 256 256 257
344 338 353 360 22 33 171 162 184 202 213 219 226 231 236 222 222 217 215 219 212 204 206 203 211 217 220 225 228 235 235 235 232 240 237 239 238 238 243 250 263 265 256 268 262 257 255
349 347 350 357 13 31 87 141 178 211 221 227 231 235 222 182 199 211 208 213 216 206 204 203 204 216 220 219 227 231 231 233 232 231 235 235 243 243 242 251 261 265 274 276 265 263 261
331 356 351 5 13 13 25 208 216 214 216 219 220 215 210 204 196 189 209 205 209 209 207 204 205 210 218 218 225 224 229 232 233 230 237 241 230 242 247 256 265 267 268 272 267 261 265
331 341 352 355 9 356 27 30 194 195 198 202 198 207 211 208 202 193 196 199 198 204 206 209 203 207 211 219 229 231 230 232 236 231 235 235 237 242 253 262 261 268 269 268 265 259 261
347 329 340 351 358 334 327 23 155 175 165 170 182 201 201 194 188 181 171 188 188 197 198 209 210 208 219 217 222 228 227 226 231 234 233 241 240 249 255 260 258 264 267 266 261 260 259
Height
5682 5683 5686 5690 5694 5698 5701 5707 5712 5717 5722 5727 5732 5736 5741 5746 5749 5752 5757 5761 5763 5766 5770 5773 5777 5780 5783 5786 5789 5787 5791 5792 5791 5793 5792 5791 5791 5791 5792 5794 5795 5796 5796 5797 5798 5800 5800
5660 5665 5668 5670 5675 5680 5684 5688 5693 5698 5704 5710 5717 5722 5727 5732 5737 5741 5745 5749 5752 5753 5758 5761 5764 5768 5770 5775 5779 5779 5783 5785 5785 5786 5786 5787 5785 5786 5787 5789 5790 5790 5791 5792 5794 5794 5795
5638 5641 5647 5651 5655 5659 5665 5671 5676 5679 5686 5693 5699 5707 5712 5718 5723 5728 5732 5735 5739 5741 5745 5749 5752 5755 5758 5768 5770 5771 5775 5776 5778 5779 5779 5779 5780 5780 5781 5781 5785 5785 5786 5786 5788 5790 5790
5613 5619 5625 5629 5634 5639 5644 5651 5657 5665 5669 5676 5682 5689 5697 5703 5709 5713 5718 5722 5726 5729 5731 5736 5740 5742 5743 5755 5757 5762 5766 5768 5770 5770 5771 5771 5772 5774 5775 5774 5779 5778 5779 5781 5784 5784 5786
5586 5592 5597 5603 5610 5616 5623 5629 5638 5644 5654 5660 5667 5674 5682 5687 5694 5699 5704 5706 5711 5715 5717 5720 5725 5728 5731 5742 5747 5753 5755 5760 5761 5762 5763 5762 5763 5767 5768 5768 5770 5773 5774 5775 5777 5779 5779
5557 5564 5571 5578 5584 5591 5598 5608 5615 5624 5632 5643 5651 5661 5667 5676 5680 5685 5688 5690 5694 5699 5703 5705 5708 5713 5719 5731 5738 5744 5745 5748 5751 5751 5752 5755 5755 5756 5759 5762 5766 5768 5767 5768 5769 5771 5773
5530 5536 5543 5550 5558 5565 5575 5584 5594 5602 5612 5622 5632 5642 5653 5661 5667 5669 5668 5671 5678 5681 5684 5692 5698 5707 5710 5715 5726 5730 5733 5738 5739 5740 5742 5746 5744 5742 5757 5756 5756 5757 5757 5760 5759 5764 5766
5501 5506 5513 5521 5530 5540 5549 5559 5571 5581 5590 5603 5613 5624 5635 5645 5651 5654 5643 5648 5663 5670 5671 5678 5684 5688 5698 5699 5708 5714 5723 5727 5728 5731 5735 5728 5730 5740 5747 5744 5746 5750 5750 5752 5755 5756 5757
5472 5477 5480 5489 5498 5507 5520 5533 5545 5558 5569 5581 5594 5605 5616 5626 5633 5634 5633 5646 5652 5650 5650 5654 5666 5671 5684 5685 5694 5699 5704 5712 5715 5719 5721 5720 5726 5732 5731 5734 5738 5741 5741 5745 5747 5747 5748
5444 5446 5451 5457 5464 5477 5488 5500 5515 5530 5545 5557 5571 5585 5594 5604 5613 5621 5628 5639 5638 5635 5624 5638 5645 5658 5662 5674 5679 5684 5689 5697 5701 5706 5711 5711 5716 5715 5721 5724 5728 5730 5734 5735 5736 5738 5737
5433 5431 5428 5427 5436 5444 5455 5469 5483 5499 5516 5532 5545 5559 5570 5581 5594 5606 5622 5627 5625 5615 5591 5625 5637 5641 5651 5656 5670 5677 5679 5687 5691 5692 5699 5703 5703 5709 5707 5715 5719 5721 5722 5720 5722 5726 5727
5422 5419 5417 5416 5414 5415 5424 5435 5450 5467 5485 5502 5517 5530 5542 5557 5574 5599 5605 5611 5609 5584 5566 5609 5621 5629 5630 5646 5653 5657 5665 5670 5678 5681 5682 5688 5690 5696 5694 5702 5706 5708 5709 5709 5712 5716 5713
5414 5410 5406 5402 5401 5401 5401 5405 5416 5430 5452 5470 5489 5502 5513 5530 5564 5574 5584 5586 5575 5549 5564 5597 5608 5616 5623 5629 5639 5643 5645 5655 5661 5668 5672 5677 5680 5680 5687 5689 5692 5693 5700 5700 5701 5702 5700
5402 5397 5394 5389 5387 5386 5387 5387 5390 5400 5415 5437 5454 5473 5486 5513 5532 5545 5555 5554 5537 5533 5560 5586 5592 5602 5611 5619 5623 5629 5632 5638 5651 5654 5659 5662 5665 5670 5676 5682 5683 5683 5688 5690 5690 5695 5698
5390 5385 5379 5375 5372 5370 5370 5372 5375 5377 5384 5399 5419 5435 5457 5488 5506 5513 5515 5512 5518 5524 5558 5571 5575 5585 5599 5607 5613 5618 5624 5632 5640 5646 5648 5651 5657 5663 5661 5666 5672 5674 5673 5684 5682 5683 5684
5375 5368 5362 5358 5354 5352 5351 5351 5356 5362 5367 5372 5378 5399 5429 5463 5476 5475 5469 5477 5500 5518 5553 5554 5556 5574 5589 5598 5602 5608 5614 5626 5628 5633 5637 5644 5646 5650 5652 5655 5661 5660 5665 5670 5667 5670 5673
5362 5354 5345 5338 5333 5331 5329 5331 5336 5345 5352 5355 5353 5360 5405 5424 5434 5429 5428 5456 5490 5508 5530 5534 5549 5564 5580 5584 5594 5599 5606 5612 5617 5621 5625 5631 5633 5639 5642 5645 5650 5652 5653 5657 5661 5664 5664
5350 5339 5330 5320 5308 5301 5303 5307 5314 5323 5333 5335 5340 5335 5380 5385 5387 5400 5417 5445 5477 5496 5513 5522 5538 5551 5565 5577 5582 5586 5594 5601 5601 5607 5612 5618 5622 5626 5635 5638 5641 5641 5645 5647 5648 5651 5659
5336 5324 5311 5296 5279 5272 5273 5280 5290 5302 5313 5320 5325 5343 5356 5353 5353 5376 5411 5433 5457 5481 5494 5506 5518 5535 5554 5565 5569 5575 5583 5587 5593 5598 5600 5603 5608 5614 5619 5623 5627 5630 5633 5636 5640 5644 5644
5321 5309 5292 5269 5255 5246 5239 5251 5266 5282 5297 5308 5315 5321 5323 5330 5345 5364 5388 5411 5437 5468 5485 5495 5509 5528 5537 5547 5557 5564 5569 5578 5584 5589 5593 5597 5601 5607 5611 5617 5620 5621 5624 5627 5626 5629 5634
5310 5296 5274 5252 5238 5222 5208 5221 5246 5264 5283 5294 5299 5305 5318 5316 5329 5347 5368 5397 5420 5444 5467 5486 5495 5502 5517 5533 5544 5545 5552 5564 5571 5578 5584 5590 5594 5599 5604 5606 5603 5606 5612 5615 5614 5622 5617
5302 5287 5266 5247 5234 5223 5217 5226 5242 5257 5274 5284 5293 5300 5310 5319 5334 5341 5352 5372 5401 5432 5455 5472 5478 5491 5504 5517 5528 5543 5547 5557 5560 5567 5572 5578 5583 5587 5590 5591 5593 5594 5598 5600 5605 5607 5608
5296 5284 5268 5248 5239 5234 5233 5240 5248 5260 5271 5279 5291 5299 5308 5315 5320 5331 5341 5363 5388 5418 5437 5463 5473 5483 5491 5511 5527 5533 5533 5539 5547 5555 5561 5566 5572 5574 5577 5578 5580 5584 5592 5592 5594 5597 5600
5293 5282 5272 5257 5247 5245 5245 5249 5256 5264 5273 5283 5293 5297 5303 5309 5315 5326 5340 5355 5370 5395 5424 5451 5466 5473 5497 5502 5507 5508 5516 5527 5535 5541 5549 5554 5560 5562 5564 5567 5566 5581 5579 5583 5584 5585 5585
5291 5281 5273 5263 5255 5251 5252 5255 5262 5268 5274 5280 5286 5292 5300 5306 5312 5320 5331 5343 5362 5381 5403 5430 5454 5471 5475 5480 5486 5488 5501 5511 5520 5532 5535 5543 5547 5548 5551 5554 5560 5565 5568 5572 5573 5576 5574
5288 5279 5273 5267 5259 5255 5254 5256 5264 5270 5275 5280 5284 5289 5295 5302 5309 5317 5326 5337 5350 5368 5387 5408 5438 5450 5461 5456 5464 5470 5481 5493 5505 5517 5523 5529 5534 5538 5539 5541 5546 5556 5556 5558 5559 5561 5565
5285 5279 5273 5267 5265 5261 5259 5258 5260 5264 5268 5272 5278 5284 5291 5299 5306 5313 5320 5332 5344 5362 5380 5398 5419 5430 5440 5439 5453 5463 5468 5477 5488 5503 5514 5517 5519 5524 5526 5527 5537 5542 5547 5544 5547 5554 5554
5283 5278 5273 5269 5266 5265 5262 5260 5260 5262 5264 5267 5274 5279 5286 5292 5296 5306 5313 5322 5336 5346 5363 5385 5401 5409 5418 5431 5436 5442 5453 5466 5480 5490 5498 5506 5507 5511 5514 5518 5524 5529 5531 5533 5534 5537 5538
5285 5278 5273 5269 5265 5264 5263 5262 5262 5262 5264 5267 5271 5277 5283 5287 5296 5301 5309 5318 5321 5336 5357 5370 5391 5398 5402 5416 5427 5435 5444 5458 5467 5473 5485 5490 5497 5499 5506 5510 5513 5515 5515 5516 5518 5521 5522